Погода в Жанауштогане

Погода в Жанауштогане : погода сейчас, прогноз погоды и архив. Всё, что Вы хотите узнать о погоде в Жанауштогане!

Хотите узнать прогноз погоды в Жанауштогане? Тогда Вам сюда: Погода в Жанауштогане

Поиск расширенной информации на нашем сайте:

Другие новости

Новости СМИ2

Главная страница сайта

Новости сайта

02.10.2013

Напоминаем, что на нашем новом сайте вы можете получить высокодетализированные прогнозы погоды по пунктам России, СНГ и мира (включающие важные для авиации метеовеличины, такие как направление и скорость ветра, видимость, явления погоды, количество и форма облачности, нижняя и верхняя граница облачности), а также ознакомиться с разнообразными материалами по авиационной метеорологии и подборкой полезных ссылок на эту тему.

Сайт Метеоцентр.Азия посвящён разработке технологий оптимизации авиаметеорологического обслуживания, включая проектирование и перспективное создание нескольких автоматизированных авиаметеорологических систем:
- система выпуска высокодетальных прогностических карт явлений погоды для нижнего воздушного пространства по России и ближнему зарубежью;
- система верификации прогнозов TAF (выпускаемых синоптиками официальных АМСГ РФ и ближнего зарубежья) и AUTOTAF (выпускаемых сайтом Метеоцентр.Азия) - выявление ошибок, онлайн-сопоставление с фактической погодой METAR, автоматическое внесение коррективов в прогнозы при резком отклонении фактической погоды от прогноза, подсчёт оправдываемости прогнозов по элементам и в целом;
- система обработки, анализа и отображения авиаметеорологической информации для применения провайдерами метеорологической информации.

Рекомендуем: Подробное описание Крайслер замена катализатора на пламегаситель тут.

Погода в Жанауштогане - сегодня

Время (UTC), дата Ветер
(°,м/с) 
Видим.   Явления Облачность Т
(°С)
Тd
(°С)
f(%) Тe
(°С)
Pmin
(гПа)
dP
(гПа)
Po
(мм)
O2
(г/м3)
Тmin Tmax R s Состояние
почвы
00 22.05.17 250 (З) 20000 м    ясно 
+13 +10.7 86 +15  1002.8  -0.5  753  288           
03 22.05.17 270 (З) 20000 м    10/8 600 м средняя 
[Sc|Ac und]
+14.7 +12.7 88 +19  1002.4  -0.4  753  285           
06 22.05.17 290 (З) 20000 м    9/4 600 м кучево-дожд., средняя 
[Cb calv|Ac trans]
+15.7 +12.4 81 +19  1002.2  -0.2  753  284  +12.9         
09 22.05.17 290 (З) 20000 м  пыльный позёмок  9/4 600 м кучево-дожд., средняя 
[Cb calv|Ac trans]
+20.2 +11.5 57 +23  1003.1  0.8  753  280           
12 22.05.17 290 (З) 20000 м    9/4 600 м кучево-дожд., средняя 
[Cb calv|Ac trans]
+21.2 +10.4 50 +23  1003.2  0.1  753  280           
15 22.05.17 320 (СЗ) 20000 м    8/4 600 м кучево-дожд., средняя 
[Cb calv|Ac trans]
+20.6 +10.5 52 +22  1004.3  1.1  754  281    +22       
18 22.05.17 тихо ()   20000 м    4/0 средняя 
[Ac trans]
+17.5 +9 57 +18  1004.9  0.7  755  284    +22       
21 22.05.17 тихо ()   20000 м    4/0 средняя 
[Ac trans]
+14.3 +9.9 75 +15  1005.6  0.7  755  287           
00 23.05.17 тихо ()   20000 м    6/0 средняя 
[Ac trans]
+12.9 +8.8 76 +13  1007.6  757  290           
03 23.05.17 320 (СЗ) 20000 м    8/0 средняя 
[Ac trans]
+11.9 +8.2 78 +12  1009.7  2.1  758  291           
06 23.05.17 320 (СЗ) 20000 м    8/8 600 м кучево-дожд. 
[Cb calv]
+13.6 +8 69 +14  1012.3  2.6  760  290  +11.8         
09 23.05.17 320 (СЗ) 20000 м    8/8 600 м кучево-дожд. 
[Cb calv]
+15.8 +5.9 52 +17  1013.9  1.6  761  289           
12 23.05.17 320 (СЗ) 20000 м    8/4 600 м кучево-дожд., средняя 
[Cb calv|Ac trans]
+19.2 +3.8 36 +21  1013.5  -0.4  761  286           
15 23.05.17 270 (З) 20000 м    6/6 600 м 
[Cu med, cong]
+18 +2.9 36 +19  1014.1  0.6  761  287    +20       
18 23.05.17 тихо ()   20000 м    4/0 средняя, верхняя 
[Ac trans|Ci sp]
+15 +3 44 +15  1016  1.9  763  291    +20       
21 23.05.17 тихо ()   20000 м    4/0 средняя 
[Ac trans]
+11.4 +3.8 59 +11  1017.9  1.9  764  295           
00 24.05.17 тихо ()   20000 м    ясно 
+7.2 +3.4 77 +7  1018.9  765  300           
03 24.05.17 тихо ()   20000 м    3/0 верхняя 
[Ci sp]
+9.6 +1.9 59 +10  1019.9  766  298           
06 24.05.17 090 (В) 20000 м    8/0 верхняя 
[Ci sp]
+15.8 +3.6 44 +17  1020.3  0.4  766  291  +7         
09 24.05.17 050 (СВ) 20000 м    8/0 верхняя 
[Ci sp]
+18.3 +2.1 34 +19  1019.4  -0.9  765  289           
12 24.05.17 070 (В) 20000 м    8/0 верхняя 
[Ci sp]
+20.4 +1.1 28 +20  1019  -0.4  765  287           
15 24.05.17 050 (СВ) 20000 м    8/0 средняя, верхняя 
[Ac trans|Ci sp]
+20.3 +0.9 27 +20  1017.8  -1.2  764  287    +21.7       
18 24.05.17 050 (СВ) 20000 м    8/0 средняя 
[Ac trans]
+15.9 +1.1 37 +17  1019.1  1.3  765  291    +21.7       
21 24.05.17 070 (В) 20000 м    8/0 средняя 
[Ac trans]
+12.4 +2.3 50 +13  1019.2  0.1  765  295           
00 25.05.17 050 (СВ) 20000 м    8/0 средняя 
[Ac trans]
+11 +3 58 +12  1019.3  0.1  765  296           
Время (UTC), дата Ветер
(°,м/с) 
Видим.   Явления Облачность Т
(°С)
Тd
(°С)
f(%) Тe
(°С)
Pmin
(гПа)
dP
(гПа)
Po
(мм)
O2
(г/м3)
Тmin Tmax R s Состояние
почвы

Для получения пояснительной информации подведите курсор к названию столбца.

ПОГОДА в Жанауштогане - архив

Всё, что Вы хотите узнать о погоде в Жанауштогане - удобно и подробно!

Выберите нужную дату (начиная с 1 января 2015* года) и нажмите кнопку "Найти".
Будут отображены архивные сводки погоды по пункту Жанауштоган, начиная с указанной даты.


Отображать данные в формате CSV (для использования в таблицах Excel)


Внимание! Наш архив погоды предназначен исключительно для личного некоммерческого использования в познавательных целях. Если Вам необходимы официальные справки о состоянии погоды (для производственных, юридических, коммерческих и т.п. целей), обращайтесь в органы Росгидромета.

*Примечание: данная дата относится к архиву по метеостанциям СССР (Россия, СНГ, Балтия).
Архив по метеостанциям Зарубежной Европы и Азии (кроме Китая) хранится 10 дней, по другим регионам земного шара (Китай, Африка, Америка, Австралия, Океания) - 1 день.

Жанауштоган - район местоположения метеостанции


Название, широта, долгота, высота метеостанции:
Жанауштоган 47.9°ш. 48.8°д. -10 м над ур. моря [Казахстан]

Дополнительная информация

В oтличие oт бoльшинства пoгoдных сайтoв мы публикуем пoдрoбную метеoинфoрмацию в детальнoм прoфессиoнальнoм фoрмате.

Характеристики температуры и влажнoсти вoздуха измеряются на высoте 2 м в тени вдали oт зданий и деревьев.
Скoрoсть ветра измеряется на высoте 10 м (на урoвне рoста челoвека скoрoсть ветра ниже в 1.5-2 раза). Если метеoстанция нахoдится в гoрoде или в лесу, тo скoрoсть ветра занижена на 2-4 м/с пo сравнению с oткрытым местoм. Скoрoсть ветра над акватoриями крупных рек и oзёр, а также на вершинах хoлмoв на 2-5 м/с выше, чем в oбычных услoвиях.
Атмoсфернoе давление в разных тoчках местнoсти мoжет значительнo oтличаться oт давления на метеoстанции, в зависимoсти oт услoвий рельефа (при пoдъёме на 10 м давление пoнижается примернo на 1 мм рт.ст.).